Regional Weather Roundup
Issued by NWS

Home | Current Version | Previous Version | Graphics & Text | Print | Product List | Glossary Off
Versions: 1 2 3 4 5 6 7 8 9 10 11 12 13 14 15 16 17 18 19 20 21 22 23 24 25 26 27 28 29 30 31 32 33 34 35 36 37 38 39 40 41 42 43 44 45 46 47 48 49 50

000
ASUS43 KDMX 260908
RWRIA

WEATHER ROUNDUP FOR IOWA
NATIONAL WEATHER SERVICE DES MOINES IA
400 AM CDT THU MAY 26 2016

NOTE: "FAIR" INDICATES FEW OR NO CLOUDS BELOW 12,000 FEET WITH NO
SIGNIFICANT WEATHER AND/OR OBSTRUCTIONS TO VISIBILITY.

* - THESE STATIONS ARE NOT NWS STATIONS...THUS NOT UNDER NWS
QUALITY CONTROL.  THEY ALSO DO NOT REPORT WEATHER SUCH
AS PRECIPITATION OR FOG.

IAZ001>003-012>014-020>022-031>034-043>046-261000-
   NORTHWEST IOWA

CITY           SKY/WX    TMP DP  RH WIND       PRES   REMARKS
CARROLL *      CLOUDY    57  55  94 NE9       29.87F
CHEROKEE *     CLOUDY    59  59 100 SW5       29.85R
DENISON *      PTCLDY    59  57  94 E12       29.83F
LE MARS *      CLEAR     61  59  94 S8        29.83R
ORANGE CITY *  CLEAR     59  57  94 S7        29.83R
SHELDON *      CLEAR     61  57  88 SW10      29.81R
SIOUX CITY     PTCLDY    59  56  89 S3        29.84R
SPENCER        CLOUDY    63  54  72 S9        29.79R
STORM LAKE *   MOCLDY    59  57  94 SE10G23   29.82F
$$

IAZ055>058-069>071-079>083-090>094-261000-
   SOUTHWEST IOWA

CITY           SKY/WX    TMP DP  RH WIND       PRES   REMARKS
ATLANTIC *     CLEAR     63  61  94 N7        29.87F
AUDUBON *        N/A     61  57  88 N8        29.88F
CLARINDA *       N/A     66  63  88 MISG      29.88F
COUNCIL BLFS * CLEAR     61  57  88 E6        29.87F
CRESTON *      CLEAR     63  59  88 W5        29.87F
HARLAN  *      CLEAR     63  57  82 NE8       29.90F
LAMONI         LGT RAIN  68  64  87 NW14G28   29.88R
RED OAK *      CLEAR     61  61 100 CALM      29.89R
SHENANDOAH *   CLEAR     64  64 100 NE8       29.89R
$$

IAZ047>049-059>061-072>074-084-261000-
   CENTRAL IOWA

CITY           SKY/WX    TMP DP  RH WIND       PRES   REMARKS
AMES           HVY RAIN  61  58  90 NW17G32   29.96R FOG
ANKENY *       RAIN      64  61  88 NW17G28   29.91R
BOONE *        RAIN      59  57  94 N9G21     29.92R
CHARITON *     MOCLDY    66  63  88 W8        29.91R
DES MOINES     TSTM      65  58  78 W12       29.93R
GRINNELL*      CLOUDY    64  61  88 CALM      29.86S
KNOXVILLE *    MOCLDY    66  63  88 NW9       29.88R
MARSHALLTOWN   TSTM      68  58  70 SW25G35   29.91R
NEWTON *       CLOUDY    66  66 100 W10       29.90R
PELLA *        PTCLDY    66  64  94 W9        29.89R
PERRY *        LGT RAIN  66  63  88 N15       29.85F
$$

IAZ004>006-015-016-023>025-035-036-261000-
   NORTH CENTRAL IOWA

CITY           SKY/WX    TMP DP  RH WIND       PRES   REMARKS
ALGONA *       LGT RAIN  63  55  77 S8        29.89R
CLARION *      RAIN      59  59 100 SW24G37   29.99R
ESTHERVILLE    CLOUDY    59  55  87 SE15      29.74F
FORT DODGE *   CLOUDY    57  54  88 CALM      29.91F
MASON CITY     LGT RAIN  58  56  93 N13       29.86F
FOREST CITY *  RAIN      57  55  94 W3        29.88R
WEBSTER CITY * LGT RAIN  59  59 100 NW13G23   29.91R
IOWA FALLS *   RAIN      61  57  88 W21G38    29.98R
$$

IAZ007>011-017>019-026>030-037>042-050>054-066-261000-
   NORTHEAST IOWA

CITY           SKY/WX    TMP DP  RH WIND       PRES   REMARKS
CEDAR RAPIDS   TSTM      71  65  81 SW21G29   29.85
CHARLES CITY * HVY RAIN  59  59 100 NW23G32   29.86R
CLINTON *      CLOUDY    68  64  87 S7        29.85F
DECORAH *      MOCLDY    64  61  88 VRB5      29.79S
DUBUQUE        MOCLDY    65  60  84 S6        29.83F
MONTICELLO *   CLEAR     68  61  77 S7        29.82F
OELWEIN *      MOCLDY    68  61  77 S8        29.81F
WATERLOO       CLOUDY    69  61  75 S7        29.80R
$$

IAZ064-065-067-068-078-261000-
   EAST CENTRAL IOWA

CITY           SKY/WX    TMP DP  RH WIND       PRES   REMARKS
DAVENPORT      CLOUDY    71  63  75 S9        29.85F
IOWA CITY      CLOUDY    73  63  70 S10       29.87R
MT. PLEASANT * LGT RAIN  73  66  78 S12G21    29.85F
MUSCATINE *    CLOUDY    73  64  73 S8        29.86R
QUAD CITIES    MOCLDY    73  63  70 S7        29.84F
$$

IAZ062-063-075>077-085>089-095>099-261000-
   SOUTHEAST IOWA

CITY           SKY/WX    TMP DP  RH WIND       PRES   REMARKS
BURLINGTON     CLOUDY    70  66  87 SW7       29.87F THUNDER
FAIRFIELD *      N/A    N/A N/A N/A MISG        N/A
FORT MADISON * MOCLDY    72  64  78 W10G16    29.90R
KEOKUK *       HVY RAIN  66  63  88 W17G40    29.94R
OSKALOOSA *      N/A     63  59  88 SW10      29.87R
OTTUMWA        CLOUDY    66  61  84 S12       29.85R
WASHINGTON *   PTCLDY    68  68 100 S9        29.84F
$$

ABBREVIATIONS USED IN REMARKS
   TC - TEMPERATURES IN CELSIUS
  WCI - WIND CHILL INDEX
   HX - HEAT INDEX
  VSB - VISIBILITY
$$





USA.gov is the U.S. government's official web portal to all federal, state and local government web resources and services.